Погода в Антананариву

Мадагаскар     18°54′05″S   47°31′19″E
темп.,
°C
ветер,
м/с
пор.,
м/с
влажн.,
%
обл.,
%
осадки,
мм/ч
давл.,
гПа
погр.,
м
10 августа, ср
ср1000:00+9юв28902 0.0 1025195
03:00+8юв259340 0.0 1025179
06:00+6ююв35962 0.0 102695
09:00+14юв41075100 0.0 1025763
12:00+14вюв6973100 0.1 10241112
15:00+14вюв587020 0.2 1023971
18:00+11юв4977100 0.0 1024595
21:00+11юв497937 0.1 1026874
11 августа, чт
чт1100:00+9юв498885 0.0 1026493
03:00+8ююв3108737 0.0 1025420
06:00+6ююв379415 0.0 1026163
09:00+15вюв6106154 0.0 10251168
12:00+13вюв597851 0.1 1025766
15:00+18вюв664713 0.1 10211565
18:00+12вюв48781 0.0 1024316
21:00+10юв389589 0.0 1026300
12 августа, пт
пт1200:00+11вюв388544 0.0 1025524
03:00+11юв3881100 0.0 1023846
06:00+11юв3884100 0.1 1024604
09:00+14вюв586715 0.1 1024874
12:00+16в686165 0.0 10231214
15:00+17вюв565988 0.1 10201212
18:00+13вюв478033 0.1 1022342
21:00+10вюв379526 0.1 1024264
13 августа, сб
сб1300:00+12вюв368093 0.0 1024746
03:00+11вюв257934 0.1 1022512
06:00+10вюв368074 0.0 1023472
09:00+15в465736 0.0 1023966
12:00+19в565224 0.0 10201403
15:00+19в545175 0.0 10191556
18:00+14в367356 0.1 1021258
21:00+11вюв23945 0.1 102272
14 августа, вс
вс1400:00+10юв239776 0.0 102296
03:00+10вюв129075 0.0 1020241
06:00+10вюв238998 0.0 1021224
09:00+14в237123 0.0 1022564
12:00+21всв32425 0.0 10181544
15:00+22всв44387 0.0 10142070
18:00+15всв496872 0.0 1017306
21:00+11юв11939 0.0 102116